Location: ScottNC Observatory
(36.0892°N, 80.4832°W)
Time: 19:55:17
(UTC-04:00)

Oscar 19 - Visible Passes

Search period start: 25 April 2019 00:00
Search period end: 05 May 2019 00:00
Orbit: 774 x 790 km, 98.6° (Epoch: 25 April)

Date Brightness Start Highest point End Pass type
(mag) Time Alt. Az. Time Alt. Az. Time Alt. Az.
25 Apr 11.8 03:09:08 10° NNE 03:12:28 40° NNE 03:12:28 40° NNE visible
25 Apr 12.6 04:50:42 10° NW 04:52:59 13° WNW 04:53:01 13° WNW visible
26 Apr 12.6 02:37:40 10° NNE 02:40:16 25° NE 02:40:16 25° NE visible
26 Apr 12.0 04:17:16 10° NNW 04:20:50 25° NW 04:20:50 25° NW visible
27 Apr 13.2 02:07:02 10° NE 02:08:05 13° ENE 02:08:05 13° ENE visible
27 Apr 11.4 03:44:47 10° N 03:48:39 43° NNW 03:48:39 43° NNW visible
28 Apr 11.5 03:12:47 10° NNE 03:16:27 46° NNE 03:16:27 46° NNE visible
28 Apr 12.7 04:54:43 10° NW 04:56:37 12° WNW 04:57:01 12° WNW visible
29 Apr 12.3 02:41:16 10° NNE 02:44:16 28° ENE 02:44:16 28° ENE visible
29 Apr 12.0 04:21:02 10° NNW 04:24:49 24° WNW 04:24:49 24° WNW visible
30 Apr 13.1 02:10:30 10° NE 02:12:05 15° ENE 02:12:05 15° ENE visible
30 Apr 11.3 03:48:30 10° N 03:52:38 43° NW 03:52:38 43° NW visible
01 May 11.3 03:16:27 10° NNE 03:20:27 54° NNE 03:20:27 54° NNE visible
01 May 12.7 04:58:54 10° NW 05:00:13 11° WNW 05:01:00 11° WNW visible
02 May 12.1 02:44:52 10° NNE 02:48:15 32° ENE 02:48:15 32° ENE visible
02 May 12.1 04:24:49 10° NNW 04:28:45 22° WNW 04:28:48 22° WNW visible
03 May 12.9 02:13:59 10° NE 02:16:03 17° ENE 02:16:03 17° ENE visible
03 May 11.3 03:52:12 10° N 03:56:36 42° NW 03:56:36 42° NW visible
04 May 11.0 03:20:07 10° NNE 03:24:24 61° NNE 03:24:24 61° NNE visible
